Wind_Speed
2 2 2 2 2 1 1 1 1 1 2 3 5 6 5 4 4 4 5 5 6 6 6 7 7 7 7 7 7 7 8 9 9 10 9 9 9 8 8 7 6 6 6 6 6 7 7 8 8 9 9 9 8 8 7 7 6 6 6 6 7 7 9 10 12 12 12 13 13
2 3 3 3 3 3 2 2 2 1 1 2 4 5 5 4 4 4 4 4 4 4 5 5 6 7 7 7 6 6 6 7 7 7 7 8 8 8 8 7 6 6 5 5 5 5 6 6 7 7 8 8 8 8 8 7 7 6 6 5 5 4 5 6 8 9 10 11 11
3 3 4 3 3 3 3 3 3 2 1 2 3 4 5 5 4 3 3 3 2 2 3 4 5 7 7 7 6 6 6 5 5 5 5 5 6 6 7 7 6 6 5 5 5 4 4 4 5 5 6 7 7 8 8 8 7 7 6 6 5 4 3 3 4 5 7 8 9
4 4 4 3 3 3 3 3 3 3 3 2 3 4 4 5 4 4 3 2 0 1 2 4 5 7 7 7 6 5 5 5 4 4 4 4 4 3 4 5 5 6 5 5 5 5 4 4 3 3 4 4 5 6 6 7 6 6 6 6 5 5 4 4 3 3 3 5 6
5 5 5 5 4 3 3 4 4 4 4 3 2 3 3 3 4 3 3 2 1 1 1 3 5 7 7 6 5 5 5 5 4 4 4 4 3 2 1 1 2 3 4 5 6 6 6 5 4 3 3 4 4 4 4 5 5 5 5 5 4 5 5 6 5 5 5 6 6
6 6 6 6 6 5 4 4 4 4 4 3 2 1 1 2 2 2 3 3 2 1 0 2 5 7 7 5 5 4 5 5 5 5 5 4 3 2 1 1 1 0 1 3 4 5 6 6 5 3 3 4 5 4 4 4 4 4 3 3 3 4 5 6 6 7 7 7 7
7 6 7 7 7 6 5 5 5 5 4 4 2 2 1 2 2 3 3 3 3 2 1 3 5 7 6 5 5 4 4 5 5 5 5 4 3 1 0 0 1 1 1 1 2 3 4 5 5 3 3 4 5 6 5 4 4 3 3 3 3 4 4 5 6 7 7 7 8
8 7 7 8 8 8 7 6 6 5 4 4 4 3 3 3 4 4 3 3 4 3 3 4 6 6 6 5 4 3 3 3 4 4 3 3 2 1 0 0 1 1 1 1 1 2 3 3 3 3 2 3 4 5 6 6 5 4 4 3 4 5 5 5 6 7 7 8 9
9 9 8 8 8 8 8 7 6 5 5 5 5 4 4 5 5 5 3 3 4 4 3 4 5 6 5 4 4 3 2 2 2 2 1 1 1 1 1 1 1 1 1 1 1 2 3 2 2 2 2 2 2 4 5 6 7 6 5 5 5 6 6 5 6 7 8 9 9
10 9 9 9 8 8 8 8 8 7 6 5 5 5 6 6 7 6 4 4 4 4 3 4 5 5 5 5 4 3 2 2 2 1 1 0 1 1 2 2 2 2 2 2 2 3 4 3 2 1 1 1 1 2 4 6 8 8 8 7 7 6 6 6 6 7 8 9 10
10 10 10 10 9 8 8 9 8 8 7 7 7 6 7 7 8 7 6 6 5 4 4 4 5 5 5 5 4 3 2 2 2 2 2 2 2 3 3 3 3 3 3 3 4 5 5 5 3 2 0 1 1 2 4 6 8 9 9 9 8 7 7 7 7 8 8 9 10
11 11 11 10 10 9 9 9 9 9 8 8 8 8 8 7 7 8 8 7 6 5 5 6 6 6 6 5 4 3 3 3 3 4 4 3 4 4 4 4 4 4 4 4 5 6 7 6 5 3 1 0 1 2 4 6 8 9 9 8 8 7 7 8 8 9 8 8 9
12 11 11 11 11 11 11 10 10 10 9 9 9 9 9 8 7 7 8 8 8 7 7 7 7 7 6 6 5 4 4 4 4 4 4 4 5 5 6 6 6 5 5 5 6 7 7 7 6 5 4 2 2 2 4 6 7 7 8 7 7 7 8 8 8 8 8 8 8
13 12 12 12 12 12 11 11 11 11 10 10 10 10 10 9 8 8 9 9 9 8 8 8 8 7 6 6 5 5 4 4 4 4 5 5 5 5 6 6 6 6 5 5 6 7 8 8 7 7 6 5 4 4 5 6 6 6 6 6 7 7 8 8 8 7 6 6 6
14 13 13 12 12 12 12 12 12 11 11 11 11 11 11 10 9 9 9 9 9 9 9 8 7 6 5 5 5 4 4 4 3 4 5 5 5 5 6 7 7 7 6 6 7 8 8 8 8 7 7 6 6 6 6 6 6 6 5 5 5 6 7 8 8 7 5 4 5
15 14 14 14 14 13 13 13 12 12 12 11 11 11 11 10 10 10 9 8 8 8 8 7 5 4 4 4 4 4 4 3 3 3 4 6 6 6 6 7 8 8 7 7 7 8 8 8 8 8 8 7 7 7 7 7 7 6 6 5 5 5 6 7 7 6 5 5 5
16 15 15 15 15 15 15 14 13 13 12 12 12 11 11 10 9 9 9 8 7 7 6 6 5 4 4 4 4 3 3 2 2 1 3 5 6 6 7 8 8 8 8 8 8 7 7 8 8 8 8 8 8 7 7 7 7 7 6 6 6 6 6 6 6 6 5 5 5
17 16 16 16 16 16 16 15 14 13 13 12 12 11 10 9 9 9 8 8 8 7 7 6 6 6 5 5 4 3 2 2 1 2 3 4 5 5 6 7 8 9 9 9 8 8 7 7 8 8 9 9 9 8 8 8 8 8 7 7 6 6 6 5 5 5 5 6 6
18 18 18 18 18 17 16 16 15 14 13 12 12 11 10 9 10 10 9 9 9 8 8 8 7 7 7 6 5 4 3 3 3 3 4 4 4 4 4 6 7 8 9 10 9 8 8 7 7 8 9 10 9 9 9 9 9 9 9 8 8 7 6 6 5 5 5 5 6
20 19 19 19 18 18 17 16 15 14 14 13 12 11 11 10 11 11 11 11 10 10 9 9 8 8 7 7 6 6 5 4 5 5 6 6 6 5 5 5 6 7 9 9 9 9 8 8 7 7 8 9 10 10 10 10 10 10 10 10 9 8 7 6 5 5 5 5 5
21 21 20 19 19 18 17 17 16 15 14 13 13 12 12 12 12 12 12 12 11 11 10 10 9 8 8 8 7 7 6 6 6 6 6 7 7 7 7 7 7 8 8 9 9 9 9 9 8 7 7 8 9 10 10 10 10 10 10 10 10 9 8 7 6 6 5 6 6
23 22 21 20 19 18 17 17 16 15 15 14 14 13 13 13 13 13 12 12 12 11 11 10 10 9 8 8 7 7 7 6 6 6 7 7 7 7 8 9 9 9 9 9 10 10 11 10 9 8 8 8 9 9 9 10 10 10 10 10 9 9 8 7 7 7 6 6 6
24 23 21 20 19 18 17 17 16 16 16 15 15 15 15 14 14 13 13 12 12 11 11 10 10 9 8 8 8 7 7 7 7 7 7 6 6 6 7 8 9 9 9 9 10 10 11 11 11 10 9 8 8 9 8 8 9 9 9 9 9 8 8 7 7 7 7 7 7
25 23 22 21 20 19 18 18 17 17 17 17 16 16 16 15 15 14 13 13 12 11 10 10 9 9 9 8 8 8 8 7 7 7 7 6 6 5 6 7 8 8 8 8 8 9 9 10 11 11 10 9 9 8 8 7 7 8 8 8 8 7 7 7 8 8 8 7 7
26 24 23 22 21 20 20 19 19 19 18 18 17 17 16 16 16 15 14 13 12 11 10 9 9 9 9 9 9 8 8 8 7 7 7 7 6 6 6 6 7 7 7 7 7 7 7 8 10 10 10 10 9 9 8 7 7 7 7 6 6 6 6 6 7 7 7 7 7
26 25 24 24 23 22 21 21 21 20 19 19 18 18 17 17 16 15 15 14 13 12 11 10 10 10 10 10 9 9 8 8 8 8 8 7 7 7 7 7 7 7 8 8 8 8 7 7 8 9 10 10 10 10 10 9 8 7 7 6 6 5 5 5 6 6 7 7 7
27 26 26 25 24 23 23 23 22 21 20 20 19 19 18 18 17 16 16 15 14 13 12 12 12 11 11 10 9 9 9 9 8 8 8 8 8 7 7 7 7 8 8 8 8 8 8 7 7 7 8 10 10 10 10 10 10 9 8 7 6 5 5 5 5 5 6 6 7
27 27 27 26 25 25 24 24 23 22 22 21 20 20 19 18 18 17 17 16 15 14 14 13 13 12 11 10 10 9 9 9 9 9 9 9 8 8 8 7 8 8 8 8 8 8 8 8 7 6 6 8 8 9 10 10 10 10 9 8 7 6 5 5 5 5 6 6 7
28 28 27 27 26 26 25 25 24 24 23 22 21 20 20 19 19 18 18 17 16 16 15 15 14 13 12 11 10 10 9 9 9 9 9 9 9 9 8 8 8 8 8 8 8 8 8 8 8 7 6 6 6 7 8 9 9 9 9 9 8 8 7 6 5 5 6 6 7
28 28 27 27 27 27 26 26 26 25 24 23 22 21 21 20 20 20 19 19 18 17 16 15 14 13 13 12 11 10 9 9 9 9 9 9 9 9 9 9 8 8 7 7 7 8 8 8 8 8 7 6 6 5 5 6 7 8 8 9 9 9 8 7 6 5 6 6 7
27 27 27 27 27 27 27 27 26 25 24 23 23 23 22 22 22 21 21 20 19 18 17 16 15 14 13 12 11 11 10 10 10 10 9 9 9 9 9 9 9 8 8 7 7 7 8 8 9 8 8 8 7 5 4 4 5 5 6 7 8 9 9 8 7 6 6 6 7
27 27 27 27 27 27 27 26 26 25 25 24 24 24 24 24 23 22 21 21 20 19 18 17 16 15 14 13 12 11 11 11 11 10 10 9 9 9 9 9 9 8 8 7 7 8 8 9 9 9 9 9 8 6 5 4 4 4 5 6 7 8 9 9 9 8 7 7 8
27 27 27 27 27 27 27 26 26 26 25 25 25 25 25 24 24 23 22 21 21 20 20 19 18 17 15 14 13 13 12 12 11 11 10 9 9 9 9 9 9 9 8 8 8 8 9 9 9 9 10 10 9 7 5 5 4 4 5 5 6 7 9 9 10 9 9 9 9
27 28 28 28 27 27 26 26 26 26 26 26 26 26 26 25 24 23 23 22 22 21 21 20 19 18 16 15 14 14 13 12 12 11 10 10 9 9 9 10 10 9 8 8 9 9 9 9 9 10 10 11 10 8 6 5 5 5 5 5 6 7 8 9 10 10 10 10 10
28 28 28 28 27 27 26 26 26 26 26 26 27 26 26 26 25 25 24 23 22 21 21 20 19 18 17 16 15 14 14 13 13 12 11 11 10 10 10 10 10 9 9 9 9 10 10 10 10 10 11 12 10 8 7 6 6 6 6 6 6 7 8 9 10 11 11 11 11
29 29 28 28 27 27 27 27 27 27 27 28 27 27 27 27 26 26 24 23 22 21 21 21 20 19 18 17 16 16 15 15 14 14 13 12 11 11 10 10 9 9 9 10 10 11 11 10 10 11 13 12 11 9 7 6 6 6 6 7 7 8 9 10 10 11 11 12 12
29 29 28 28 27 27 27 27 27 28 28 29 28 28 27 27 26 25 24 23 22 22 22 21 21 20 19 19 18 17 16 16 15 15 14 13 12 12 11 10 9 8 9 10 11 12 12 11 11 13 14 13 11 9 7 6 6 7 7 8 9 9 10 10 11 11 12 12 12
29 29 29 28 28 27 27 28 28 29 29 29 29 28 28 27 26 25 25 24 23 23 23 22 22 21 21 20 19 18 17 16 16 15 15 14 13 13 12 11 10 9 9 11 12 13 13 12 12 14 15 13 11 9 8 7 8 8 9 10 10 10 10 11 11 12 12 12 12
29 29 29 28 28 28 28 28 29 29 30 29 28 28 27 26 26 26 25 25 24 24 23 23 22 22 21 20 19 18 17 17 16 16 15 15 14 13 13 11 11 9 9 11 13 14 14 13 13 14 14 12 11 9 8 8 9 10 11 11 11 11 11 11 12 12 12 12 11
28 29 29 29 28 28 28 29 29 30 30 29 28 27 27 26 26 26 25 24 24 24 23 23 22 21 21 20 19 18 18 17 16 16 15 15 14 14 13 12 11 10 10 12 14 15 15 13 13 14 14 12 11 10 9 9 10 11 11 11 11 11 11 11 12 13 12 12 11
27 28 29 29 28 28 29 29 29 29 28 28 28 28 27 27 26 25 24 24 24 23 23 22 22 21 21 20 20 19 19 18 17 16 15 15 14 14 13 13 12 11 11 13 15 16 16 14 14 14 14 13 12 10 9 10 11 12 12 11 11 11 11 12 12 13 13 12 11
Wind_Direction
233 240 231 224 222 225 221 207 210 194 169 152 140 129 116 100 95 91 88 86 87 90 90 85 81 76 68 57 53 53 55 52 46 41 42 50 60 68 72 73 74 77 81 86 90 93 94 97 102 108 111 112 108 102 95 88 80 74 70 74 84 100 116 127 135 142 149 153 156
230 234 230 228 226 231 236 237 237 228 190 158 146 137 129 122 113 102 93 88 87 91 93 93 90 85 75 61 53 53 56 58 52 43 40 45 55 63 67 67 69 72 77 83 89 95 97 99 102 106 110 113 113 109 106 104 100 97 94 91 88 88 98 109 120 131 142 151 157
225 229 225 223 223 231 238 241 241 239 217 176 148 140 136 133 127 119 110 100 89 83 89 93 93 87 78 65 55 53 58 62 59 50 42 41 50 60 65 66 68 70 76 80 86 93 100 102 105 107 110 113 114 111 108 108 109 106 104 107 112 117 118 110 110 122 135 147 157
217 221 218 214 217 227 231 235 238 236 226 198 157 151 152 149 146 141 137 129 128 71 82 92 96 91 83 74 64 59 61 66 66 63 56 50 47 55 64 69 68 70 75 80 85 89 94 100 108 118 122 121 119 114 111 110 110 107 107 112 121 134 146 156 163 163 159 160 167
214 218 214 210 213 222 230 233 233 234 231 219 182 168 167 155 149 147 149 160 191 218 87 99 104 99 92 88 85 79 73 73 72 75 77 73 60 44 39 58 69 72 74 80 85 89 90 91 100 126 151 152 145 133 124 120 114 109 109 117 125 139 152 162 174 186 192 192 190
213 218 217 212 210 214 222 225 226 229 230 223 195 162 145 131 132 141 152 163 189 225 194 107 108 108 110 115 118 110 98 89 86 88 92 93 82 57 16 334 314 37 76 83 89 93 92 90 93 117 162 177 176 172 165 150 132 124 123 132 144 158 164 167 173 181 188 193 197
209 216 219 217 212 211 214 219 220 225 226 218 185 162 158 157 150 154 164 176 194 207 176 122 117 124 135 150 152 143 127 114 109 109 112 114 107 92 54 323 295 282 270 115 106 106 102 95 91 102 144 178 185 187 185 178 162 152 153 168 186 190 184 176 173 175 179 186 193
206 211 216 219 216 213 213 216 218 220 222 216 195 186 186 185 167 158 162 184 196 200 181 146 139 146 161 176 180 177 163 146 138 135 135 136 128 116 103 258 270 273 270 248 166 137 124 111 95 94 114 157 181 188 189 187 181 176 178 196 208 210 202 188 178 174 176 183 190
208 210 212 216 218 217 217 220 218 218 220 219 210 204 202 200 183 166 158 184 202 211 202 174 164 167 178 192 205 210 202 180 164 160 163 166 120 71 71 101 146 187 219 215 181 159 150 141 120 94 97 117 152 177 186 189 188 186 188 202 213 217 212 200 185 179 181 185 190
212 211 211 212 215 218 221 225 224 221 220 222 218 216 215 214 201 188 182 196 212 220 214 197 189 186 190 200 211 217 211 189 168 162 155 66 63 69 81 100 117 129 140 148 153 154 156 157 154 126 70 74 104 145 167 178 185 187 191 200 210 215 215 206 194 187 187 190 191
216 213 212 211 212 215 220 224 226 223 220 221 222 222 222 223 216 211 210 216 220 218 212 210 208 206 207 209 209 212 209 189 166 154 136 113 106 102 103 107 115 122 128 136 143 148 151 152 152 144 97 20 42 111 146 165 178 185 191 199 209 215 216 209 198 192 190 192 194
220 216 213 213 212 213 216 221 223 221 219 220 223 224 223 224 223 223 226 228 225 219 217 221 222 224 224 221 215 213 211 201 177 162 151 140 133 128 124 121 122 125 129 135 141 145 147 146 144 142 133 90 57 114 147 165 178 185 190 196 203 210 212 206 198 193 192 195 198
224 219 216 215 213 213 215 219 222 221 220 219 222 224 224 222 221 226 231 232 228 224 224 230 236 241 243 244 235 225 217 208 192 174 162 156 152 146 141 137 134 133 134 139 143 145 145 143 139 136 133 129 119 135 155 170 182 188 190 190 193 197 199 198 195 193 195 200 205
226 221 218 217 216 215 216 219 221 223 222 222 223 224 224 222 220 225 231 234 231 229 232 240 248 253 257 261 256 245 232 222 205 183 169 164 164 160 154 148 144 142 142 143 143 145 145 143 139 137 136 136 135 145 158 169 180 187 188 186 185 187 189 188 188 189 195 206 217
225 222 219 217 216 216 217 218 220 223 224 223 224 225 226 225 223 226 233 236 234 234 238 246 252 255 258 261 262 261 256 249 229 197 175 166 168 166 162 156 152 150 149 148 147 148 149 148 145 142 139 137 138 146 155 164 170 176 178 178 177 179 181 180 180 183 193 212 229
225 222 219 216 215 216 217 218 219 221 222 223 224 226 228 228 226 228 233 234 230 232 236 242 245 245 248 251 258 264 269 268 255 214 180 168 166 166 164 161 158 157 155 153 152 152 154 156 155 151 145 140 140 144 151 158 162 165 165 166 170 176 179 178 175 177 188 209 225
224 222 219 217 216 216 217 217 218 219 220 221 223 227 230 228 224 225 227 224 218 219 222 223 222 223 228 237 247 257 266 271 268 205 173 168 168 167 167 166 165 163 159 157 155 156 159 163 165 163 156 148 143 143 147 153 158 161 163 166 172 180 185 183 179 178 185 199 211
221 221 220 219 218 217 217 216 217 218 219 220 222 225 226 222 218 218 218 211 206 205 205 203 205 210 217 224 230 236 241 236 196 150 152 161 169 171 170 169 170 168 164 160 159 159 163 168 172 172 168 160 152 148 148 152 156 160 164 169 176 184 190 190 186 184 187 194 203
218 219 220 220 220 219 217 216 216 217 218 219 220 220 218 212 212 212 210 203 199 198 198 198 202 208 214 220 223 223 218 202 177 162 159 160 164 167 167 166 167 167 166 164 162 162 165 170 175 178 177 173 166 159 156 156 158 161 166 172 179 187 193 195 193 191 193 200 207
215 216 218 220 221 220 218 216 215 216 217 218 217 214 210 206 207 208 206 200 197 196 198 200 204 208 214 220 223 223 218 210 196 184 179 176 169 163 157 153 155 159 162 163 162 163 166 170 176 180 182 180 179 175 171 169 168 169 174 181 188 195 199 202 202 201 205 211 217
213 215 217 219 220 220 218 217 215 215 216 216 214 210 206 204 206 207 206 204 201 201 202 205 208 211 214 219 221 221 220 219 213 208 204 198 189 177 164 156 154 156 159 160 162 165 168 169 171 172 174 178 182 185 186 186 184 185 188 194 200 203 203 204 205 209 214 219 224
212 213 214 216 218 218 218 216 214 214 214 214 212 209 206 204 206 208 208 208 208 208 210 211 213 214 216 219 220 220 220 221 222 225 226 222 213 199 184 173 169 167 166 165 168 171 171 167 164 161 163 172 179 185 190 194 196 198 201 206 209 209 207 204 206 211 216 222 225
210 210 210 212 214 215 215 213 212 211 212 212 211 209 207 206 207 209 211 212 213 215 216 217 216 216 215 217 218 218 218 220 223 230 235 235 230 216 201 190 186 183 179 175 178 180 178 172 167 161 161 167 175 180 185 192 198 203 207 211 214 213 210 208 208 212 216 221 224
209 207 207 208 210 211 211 210 209 209 209 210 210 209 208 208 209 210 211 213 216 217 217 217 214 211 210 211 214 215 216 218 221 227 232 235 233 224 210 200 196 193 187 180 182 185 186 182 177 170 166 166 171 175 179 184 191 198 203 209 213 213 212 210 211 214 217 220 223
208 205 204 204 206 207 207 206 206 206 207 209 209 209 208 208 209 209 210 212 213 214 212 209 206 205 206 208 210 213 215 217 220 224 227 227 227 223 214 203 197 190 182 174 176 179 182 183 184 181 176 172 171 171 172 174 179 186 193 200 206 209 211 212 213 215 217 218 219
206 204 203 203 204 204 205 205 205 205 206 207 208 208 208 208 208 208 208 208 209 208 206 203 202 204 207 209 212 214 215 215 218 222 224 224 222 220 215 207 198 188 178 172 173 174 173 174 179 184 185 182 178 173 171 169 170 174 180 188 197 204 210 213 214 216 215 214 215
205 204 203 203 203 203 204 204 204 204 205 205 206 207 207 207 207 207 206 205 205 204 203 203 204 206 210 214 216 216 215 214 215 218 222 223 220 218 215 209 202 193 184 178 178 177 175 173 172 178 186 191 189 185 181 178 176 175 176 181 189 199 208 213 214 214 211 208 209
204 203 203 202 202 203 204 204 203 204 204 204 205 205 206 206 205 205 205 204 204 203 203 203 206 210 214 218 220 220 218 215 214 215 218 220 219 217 215 212 207 200 192 187 186 185 182 178 176 181 191 201 200 199 197 194 191 189 188 187 189 193 200 207 213 214 209 203 202
205 203 202 201 201 202 203 203 203 203 204 203 204 204 204 204 205 205 205 204 203 202 202 203 206 211 215 218 221 222 220 216 214 214 216 216 216 215 214 213 211 206 199 194 194 191 185 181 181 185 195 209 210 208 208 208 207 206 204 201 198 193 192 197 206 210 208 201 197
205 203 201 201 201 202 202 203 203 203 202 202 202 203 203 204 204 205 205 204 203 203 203 205 206 209 212 216 218 219 218 215 215 215 215 215 214 212 212 213 214 210 204 199 196 190 183 181 182 185 194 206 214 217 218 220 220 218 215 212 207 199 192 190 196 203 204 200 191
205 203 202 202 202 202 202 203 203 202 201 200 201 202 203 203 204 205 205 205 204 204 205 206 207 208 211 214 215 215 215 214 214 215 216 216 213 212 210 211 214 211 205 200 195 189 183 180 181 186 193 205 215 224 232 239 237 230 223 218 212 204 197 191 191 194 197 193 183
205 203 202 202 202 203 203 202 201 201 200 200 201 202 203 204 205 205 206 205 205 204 203 204 206 207 208 208 209 211 212 212 213 215 217 216 214 211 209 209 212 211 205 197 194 190 186 183 182 185 194 207 217 227 239 250 250 243 233 222 215 209 203 197 192 190 190 187 179
205 204 203 203 203 203 202 201 200 200 199 200 201 202 203 204 205 205 205 206 205 203 203 203 204 204 203 203 204 205 208 209 212 214 216 216 213 209 207 208 212 211 205 197 196 193 188 185 183 187 196 208 216 226 238 250 252 248 238 227 218 212 207 202 197 192 188 182 177
205 204 204 204 203 203 202 200 200 199 199 200 201 202 203 204 204 204 204 205 204 204 204 204 205 204 204 202 202 203 204 206 209 211 213 213 212 209 208 209 212 211 205 200 198 195 190 187 186 190 198 206 214 224 235 244 245 241 233 225 219 212 207 203 199 194 188 182 176
205 204 204 204 203 202 201 200 199 199 199 199 201 202 203 204 204 204 203 204 204 204 204 205 206 205 204 204 203 203 203 203 205 207 209 210 210 209 209 211 213 212 207 201 199 196 191 187 188 194 200 206 213 223 232 237 235 230 224 218 213 209 205 202 198 194 188 182 177
205 204 204 203 202 201 200 199 198 198 199 200 201 202 203 204 204 204 203 202 202 202 203 203 204 203 202 201 201 202 203 202 202 204 206 207 208 208 209 212 214 213 207 201 198 195 191 188 190 196 201 207 215 223 229 230 224 217 212 208 206 205 204 202 198 192 187 183 180
206 204 203 202 201 200 199 198 198 198 199 201 201 202 202 203 203 203 202 201 200 201 202 202 201 201 201 200 200 201 202 203 203 203 204 206 206 207 208 211 214 213 206 199 196 194 191 190 191 196 202 208 215 222 224 218 208 201 197 196 199 202 203 201 196 191 187 185 185
206 205 203 202 201 200 199 198 198 199 201 202 202 202 202 202 201 201 200 200 200 200 201 201 201 201 201 200 199 200 202 204 205 204 204 204 205 205 205 206 210 211 205 196 193 191 190 191 193 198 203 210 216 220 218 206 194 187 185 188 193 197 199 196 193 190 189 188 189
206 205 203 202 201 200 199 199 200 201 202 202 202 202 202 201 201 200 200 200 200 201 201 200 200 200 200 199 199 199 201 203 205 206 206 205 205 205 204 202 205 208 203 194 191 189 188 190 194 200 206 211 216 219 213 199 186 181 181 184 189 193 194 192 190 189 190 190 191
206 205 204 202 201 201 200 200 202 202 203 202 201 201 201 201 201 200 200 200 201 202 202 201 201 200 199 198 197 197 198 200 202 204 205 205 205 204 203 200 201 204 202 194 190 187 186 188 194 201 207 211 215 215 209 194 183 179 180 184 188 190 190 188 188 189 189 190 190
206 205 204 203 202 202 201 202 203 203 203 202 202 202 201 201 200 199 199 199 201 202 202 202 201 199 198 197 197 197 197 197 198 200 202 203 203 202 200 198 197 200 200 195 190 188 187 187 192 200 207 210 212 210 204 192 183 180 181 184 188 189 187 185 186 188 189 190 189
Height
766 766 766 766 767 767 767 767 767 767 767 767 767 768 768 768 768 768 768 768 768 768 768 768 768 768 768 768 768 768 768 768 768 768 768 768 768 768 768 769 769 769 770 770 771 771 772 772 773 773 773 774 775 775 776 777 777 777 777 777 778 778 778 779 780 781 782 783 783
766 766 766 767 767 767 767 767 767 767 767 767 768 768 768 768 768 768 768 768 768 768 768 768 768 768 768 768 768 768 768 768 768 768 768 768 768 769 769 769 770 770 770 771 771 772 772 773 773 773 774 774 775 776 776 777 778 778 778 778 778 779 779 779 780 781 782 783 784
766 766 766 767 767 767 767 767 767 767 767 767 768 768 768 768 769 769 769 769 769 769 769 769 768 768 768 769 769 769 769 769 769 769 769 769 769 769 769 770 770 770 771 771 771 772 772 773 773 773 774 774 775 776 776 777 778 778 778 779 779 780 780 780 780 781 782 783 784
766 766 766 766 767 767 767 767 767 767 767 767 768 768 768 768 769 769 769 769 769 769 769 769 769 769 769 769 769 769 769 770 770 770 770 770 770 770 770 770 770 771 771 772 772 772 772 773 773 773 774 774 775 776 776 777 778 778 778 779 780 781 781 781 782 782 783 783 784
765 766 766 766 766 767 767 767 767 767 767 767 768 768 768 768 769 769 769 769 769 769 769 770 770 769 770 770 770 770 770 770 770 770 770 770 770 770 770 771 771 771 772 772 772 772 773 773 773 773 773 774 775 775 776 777 777 778 778 779 780 781 782 782 783 783 784 784 785
765 765 765 766 766 766 767 767 767 767 767 767 768 768 768 768 769 769 769 769 769 769 769 770 770 770 770 770 770 770 770 770 770 770 770 770 770 770 770 771 771 771 772 772 773 773 773 773 773 773 773 774 774 775 776 777 777 778 778 779 780 781 782 783 783 784 784 784 785
764 764 765 765 766 766 766 766 767 767 767 767 768 768 768 769 769 769 769 769 769 769 769 769 770 770 770 770 770 770 770 770 770 770 770 770 770 771 771 771 771 771 772 772 773 773 773 774 774 774 774 774 775 775 776 777 777 778 779 780 781 782 783 783 783 784 784 785 785
763 763 764 764 765 765 766 766 766 767 767 767 768 768 768 769 769 769 769 769 768 769 769 769 770 770 769 769 769 770 770 770 770 770 770 770 771 771 771 771 771 771 772 772 773 773 774 774 774 774 774 774 775 775 776 777 778 778 779 780 781 782 783 784 784 785 785 785 786
762 763 763 764 764 765 765 766 766 766 767 767 768 768 768 768 768 769 769 768 768 768 769 769 769 769 769 769 769 769 770 770 770 770 770 770 771 771 771 771 771 771 772 772 772 773 773 774 775 775 775 775 775 776 777 777 778 779 779 780 781 782 783 784 785 785 786 786 786
760 761 762 763 763 764 764 765 765 766 766 767 767 768 768 768 768 768 768 768 768 768 769 769 769 769 769 769 769 769 769 770 770 770 770 770 771 771 771 771 771 772 772 772 772 773 773 774 775 775 775 776 776 777 777 778 778 779 780 780 781 782 783 784 785 786 786 786 787
759 760 761 762 762 763 764 764 765 765 766 766 767 767 767 767 768 768 768 768 768 768 768 769 769 769 769 769 769 769 769 769 770 770 770 771 771 771 771 772 772 772 772 772 773 773 773 774 774 775 776 776 776 777 778 778 778 779 779 780 781 782 783 784 785 786 786 787 787
758 758 759 760 761 762 763 763 763 764 765 765 766 766 766 767 767 767 768 768 768 768 768 768 768 768 768 768 768 769 769 769 769 770 770 770 771 771 772 772 772 772 773 773 773 773 773 774 774 775 775 776 777 777 778 778 778 779 779 780 781 782 783 784 784 785 786 786 786
757 758 758 759 760 761 762 762 763 763 764 764 765 765 765 766 766 767 767 767 768 768 768 768 768 768 768 768 768 768 768 769 769 769 770 770 771 771 772 772 772 773 773 773 773 773 774 774 774 774 775 776 777 778 778 778 779 779 780 780 781 782 783 783 784 785 785 785 786
756 757 757 758 758 759 760 761 761 762 763 763 763 764 764 765 765 766 766 766 767 767 767 767 767 768 768 768 768 768 768 768 769 769 769 770 770 771 771 772 772 773 773 773 773 774 774 774 774 774 775 776 777 778 778 779 779 780 780 781 781 781 782 783 783 784 784 785 785
755 755 756 757 758 758 759 759 760 761 761 762 763 763 763 764 764 765 765 765 766 766 766 767 767 767 767 767 768 768 768 768 768 769 769 770 770 770 771 771 772 772 773 773 773 774 774 774 775 775 775 775 776 777 778 779 780 780 781 781 781 781 782 782 783 783 783 784 784
754 754 755 756 756 757 758 758 759 759 760 761 761 762 762 763 763 763 764 764 765 765 766 766 766 767 767 767 767 767 768 768 768 768 769 769 769 770 770 771 771 772 772 773 773 774 774 774 775 775 775 776 776 777 778 778 779 780 781 781 781 781 781 782 782 783 783 783 783
753 753 754 755 755 756 756 757 758 758 759 760 760 761 761 762 762 763 763 763 764 764 765 765 766 766 766 767 767 767 767 768 768 768 768 768 769 769 770 770 771 771 772 772 773 773 774 774 775 775 776 776 776 777 777 778 779 780 780 781 781 781 781 782 782 782 782 782 782
751 752 753 753 754 754 755 756 757 757 758 759 759 760 760 761 762 762 763 763 763 764 764 765 765 765 766 766 766 767 767 767 768 768 768 768 768 769 769 770 770 771 772 772 773 773 773 774 774 775 775 776 776 777 777 778 778 779 780 780 781 781 781 782 782 782 782 781 781
750 751 751 752 753 753 754 755 756 756 757 758 758 759 760 760 761 761 762 762 763 763 763 764 764 765 765 766 766 766 767 767 767 768 768 768 768 768 769 769 770 770 771 772 772 773 773 774 774 775 775 776 776 777 777 777 778 778 779 779 780 781 781 781 781 781 781 781 781
748 749 750 750 751 752 753 754 755 755 756 757 758 758 759 760 760 761 761 762 762 763 763 763 764 764 765 765 766 766 766 767 767 767 768 768 768 768 769 769 770 770 771 771 772 773 773 773 774 774 775 775 776 776 777 777 778 778 778 778 779 780 780 781 781 781 781 781 780
747 748 748 749 750 751 752 753 754 755 756 756 757 758 758 759 760 760 760 761 761 762 762 763 763 763 764 764 765 765 766 766 767 767 767 767 768 768 768 769 769 770 770 771 772 772 773 773 774 774 774 775 776 776 777 777 777 778 778 778 778 779 779 780 780 780 781 781 780
746 747 748 748 749 750 751 752 753 754 755 755 756 757 758 758 758 759 759 760 760 761 761 762 762 763 763 764 764 765 765 766 766 766 766 767 767 768 768 768 769 769 770 770 771 771 772 773 773 774 774 775 775 776 776 777 777 777 778 778 778 778 778 779 779 780 780 780 780
744 745 747 748 748 749 750 751 752 753 754 754 755 756 757 757 758 758 758 759 759 760 760 761 762 762 763 763 764 764 765 765 765 766 766 766 767 767 767 768 768 768 769 769 770 770 771 772 772 773 773 774 774 775 775 776 776 777 777 777 778 778 778 778 778 779 779 780 780
743 744 745 746 747 748 749 750 751 752 753 753 754 755 756 756 757 757 758 758 758 759 759 760 761 761 762 762 763 763 764 764 765 765 765 766 766 766 766 767 767 768 768 768 769 770 770 771 772 772 773 773 774 774 775 775 776 776 776 777 777 777 777 778 778 778 778 779 779
742 743 744 745 746 747 748 749 750 750 751 752 753 754 754 755 756 756 757 757 758 758 759 759 760 760 761 762 762 763 763 763 764 764 765 765 765 766 766 766 766 767 767 768 768 769 770 770 771 772 772 773 773 773 774 775 775 775 775 776 776 776 777 777 777 777 778 778 778
740 741 743 743 744 745 746 747 748 749 750 751 752 753 753 754 754 755 756 756 757 757 758 758 759 759 760 761 761 762 762 763 763 763 764 764 765 765 765 766 766 766 767 767 768 768 769 770 770 771 771 772 772 773 773 774 774 775 775 775 775 776 776 776 776 777 777 777 778
738 740 741 742 743 744 745 745 747 748 749 750 751 752 752 753 753 754 755 755 756 756 757 758 758 758 759 760 760 761 762 762 763 763 763 764 764 765 765 765 765 766 766 767 767 768 768 769 770 770 771 771 772 772 773 773 773 774 775 775 775 775 776 776 776 776 776 777 777
737 738 739 740 741 742 743 744 745 746 747 748 749 750 751 752 753 753 754 754 755 755 756 757 757 758 758 759 759 760 761 761 762 762 763 763 763 764 764 765 765 765 766 766 767 767 768 768 769 770 770 770 771 771 772 772 773 773 774 774 775 775 775 776 776 776 776 776 777
735 736 737 738 739 740 741 742 743 744 746 747 748 749 750 751 752 752 753 753 754 754 755 755 756 757 757 758 758 759 760 760 761 761 762 762 763 763 764 764 764 765 765 766 766 766 767 768 768 769 769 769 770 770 771 772 772 773 773 774 774 775 775 775 776 776 776 776 777
734 735 736 737 737 738 739 740 741 743 744 746 747 748 749 750 750 751 751 752 753 753 754 754 755 756 756 757 758 758 759 759 760 760 761 762 762 763 763 763 764 764 765 765 765 766 766 767 768 769 769 769 769 770 770 771 772 772 773 773 773 774 774 775 775 775 776 776 776
733 734 734 735 736 737 738 738 740 741 743 744 745 747 748 748 749 749 750 751 752 752 753 753 754 755 755 756 757 757 758 758 759 759 760 761 761 762 762 763 763 764 764 765 765 765 766 766 767 768 768 768 768 769 770 770 771 771 772 772 773 773 774 774 775 775 775 776 776
732 733 733 734 735 735 736 737 739 740 741 743 744 745 746 747 747 748 749 750 751 751 752 753 753 753 754 755 756 756 757 758 758 758 759 760 760 761 762 762 763 763 764 764 765 765 765 766 767 768 768 768 768 768 769 769 770 770 771 772 772 773 773 773 774 774 775 775 776
731 731 732 733 733 734 735 736 738 739 740 741 742 743 744 745 746 747 748 749 750 750 751 751 752 753 753 754 755 756 756 757 757 758 758 759 760 760 761 761 762 762 763 764 764 765 765 766 766 767 767 767 768 768 768 769 769 770 770 771 772 772 773 773 773 774 774 775 775
729 730 730 731 732 733 734 735 736 737 738 739 740 741 743 744 745 746 747 748 748 749 750 750 751 752 753 753 754 755 755 756 757 757 758 758 759 759 760 760 761 762 762 763 763 764 765 765 766 767 767 767 767 768 768 768 769 769 770 770 771 772 772 773 773 773 774 774 775
728 728 729 730 731 732 733 734 735 736 737 738 739 740 741 742 743 744 745 746 747 748 749 749 750 751 752 753 753 754 755 755 756 757 757 758 758 759 759 760 760 761 762 762 763 763 764 765 766 766 766 766 767 767 768 768 768 768 769 770 770 771 772 772 773 773 773 774 774
726 727 727 728 729 730 731 732 733 734 735 736 737 738 739 740 742 743 744 745 747 747 748 749 749 750 751 752 753 753 754 754 755 756 756 757 758 758 758 759 759 760 761 762 762 763 764 765 766 766 765 765 766 767 767 767 768 768 768 769 770 770 771 771 772 773 773 773 774
724 725 726 727 728 729 730 731 732 733 733 734 735 736 737 739 740 742 743 744 745 746 747 748 748 749 750 750 751 752 753 753 754 755 756 756 757 758 758 758 759 759 760 761 762 762 763 764 765 765 765 765 766 766 767 767 767 768 768 768 769 769 770 771 771 772 773 773 773
723 723 724 725 726 727 728 729 730 731 731 732 733 735 736 738 739 741 742 743 744 745 745 746 747 748 748 749 750 751 752 753 754 754 755 756 756 757 757 758 758 759 759 760 761 762 763 763 764 764 764 765 765 766 766 767 767 767 768 768 768 769 769 770 771 772 772 773 773
721 722 723 724 725 726 727 728 728 729 729 731 732 734 735 737 738 739 740 742 743 743 744 745 746 747 748 749 750 751 752 752 753 753 754 755 756 756 757 757 758 758 759 759 760 761 762 763 764 764 763 764 765 766 766 766 767 767 767 768 768 768 769 770 771 771 772 773 773
720 721 722 723 723 724 725 726 726 727 728 730 731 733 734 735 737 738 739 741 742 743 743 744 745 746 747 748 749 750 751 751 752 753 753 754 755 756 756 757 757 758 758 759 760 761 762 763 763 763 763 764 765 765 766 766 766 767 767 767 768 768 769 769 770 771 772 772 773
719 720 721 721 722 723 724 724 725 726 728 729 730 731 733 734 736 737 738 740 741 742 743 744 745 746 746 747 748 749 749 750 751 752 753 754 754 755 756 756 757 757 758 758 759 760 761 762 763 763 763 764 765 765 766 766 766 767 767 767 767 768 768 769 770 771 772 772 773